Weather in Ertil

Russia / Voronezh Oblast     51°50′08″N   40°47′57″E
temp.,
°C
wind,
m/s
gust,
m/s
humid.,
%
clouds,
%
prec.,
mm/h
press.,
hPa
HPBL,
m
27 july, tue
tue2700:00+20s124897 0.0 102212
03:00+17s22524 0.0 102219
06:00+18sw22555 0.0 102236
09:00+24wsw34425 0.0 1022486
12:00+28w334055 0.0 10211780
15:00+28wnw453999 0.0 10192278
18:00+21n497075 1.3 1019208
21:00+18n117719 2.3 101911
28 july, wed
wed2800:00+18wsw11781 0.0 101911
03:00+17wnw22847 0.1 101914
06:00+18nw118011 0.0 101827
09:00+23sw116181 0.0 1018383
12:00+28sw234368 0.0 10161449
15:00+29ssw3438100 0.0 10152011
18:00+26sse2343100 0.0 101333
21:00+22n355699 0.0 1013102
29 july, thu
thu2900:00+21nne5965100 0.0 1013314
03:00+19se3479100 0.3 101182
06:00+19sw3108115 0.5 1010220
09:00+24w57631 0.5 1009627
12:00+29w68467 0.0 10091914
15:00+30wnw7938100 0.0 10082556
18:00+28w354930 0.0 1007200
21:00+24nw1159100 0.0 100811
30 july, fri
fri3000:00+21wsw336775 0.1 100841
03:00+20wsw2276100 0.2 100824
06:00+20wnw238799 0.8 1009102
09:00+24w2364100 0.8 1009470
12:00+29wsw33496 0.0 10091473
15:00+29ssw3453100 0.2 1008832
18:00+27sw2259100 0.0 100730
21:00+23n11703 0.0 100811
31 july, sat
sat3100:00+22ne227316 0.0 100811
03:00+21ne117556 0.1 100811
06:00+22wnw117270 0.0 100829
09:00+25wnw116253 0.0 1009231
12:00+30w253923 0.0 10082671
15:00+31wnw2336100 0.0 10071848
18:00+27s35527 0.0 1007149
21:00+23w22571 0.0 100913